Other Public Products
Issued by NWS Grand Forks, ND

Home | Current Version | Previous Version | Text Only | Print | Product List | Glossary Off
Versions: 1 2 3 4 5 6 7 8 9 10 11 12 13 14 15 16 17 18 19 20 21 22 23 24 25 26 27 28 29 30 31 32 33 34 35 36 37 38 39 40 41 42 43 44 45 46 47 48 49 50

000
FPUS83 KFGF 260510
OPUFGF
PRAIRIE TO PINES WEATHER ROUNDUP
NATIONAL WEATHER SERVICE EASTERN NORTH DAKOTA/GRAND FORKS ND
1200 AM CDT THU APR 26 2018

 **SATELLITE DATA USED TO AUGMENT SKY COVER AT AUTOMATED STATIONS**
 *****  WEATHER ACROSS EASTERN NORTH DAKOTA  *****

CITY           SKY/WX    TMP DP  RH WIND       PRES   REMARKS
GRAND FORKS    MOCLDY    52  36  54 NW22G29   29.77R
GRND FORKS AFB FAIR      53  34  49 N23G32    29.78R
GRND FORKS NWS   N/A     52  39  61 W7        29.74R
BUXTON           N/A     48  43  81 S9          N/A
DEVILS LAKE    FAIR      47  32  56 N18G25    29.85R
FARGO          FAIR      51  36  56 S18       29.78F
WAHPETON ARPT  FAIR      45  34  65 S14       29.83F
$$

 *****  WEATHER ACROSS CENTRAL AND WESTERN NORTH DAKOTA  *****

CITY           SKY/WX    TMP DP  RH WIND       PRES   REMARKS
JAMESTOWN      FAIR      51  32  48 SW12      29.76S
BISMARCK       FAIR      56  35  45 NW20G30   29.85R
MINOT          FAIR      50  33  52 N13       29.95R
MINOT AFB      FAIR      49  32  51 N12       29.94R
GARRISON         N/A     49  35  58 N15G22    29.92R
WILLISTON      FAIR      50  31  48 N13       30.03R
DICKINSON      FAIR      50  32  50 N10       29.96R
HETTINGER      FAIR      52  31  44 N17G29    29.95R
$$

 *****  OTHER OBSERVATIONS NORTHEAST NORTH DAKOTA  *****

CITY           SKY/WX    TMP DP  RH WIND       PRES   REMARKS
WALHALLA       FAIR      50  34  53 N16       29.86R
LANGDON        CLOUDY    46  32  57 N20       29.86R
CAVALIER         N/A     50  32  50 N14G22    29.83R
GRAFTON        FAIR      50  32  50 N25G36    29.81R
CANDO          FAIR      46  32  57 N14G21    29.89R
FORT TOTTEN    NOT AVBL
ROLLA          FAIR      45  27  49 N20       29.91R
RUGBY          FAIR      48  30  49 N17G25    29.90R
 ***** THE ABOVE OBSERVATIONS ARE NON NWS ARE NOT QUALITY
        CONTROLLED AND MAY MIS-REPORT RAIN FOR SNOW...
$$

 *****  OTHER OBSERVATIONS SOUTHEAST NORTH DAKOTA *****

CITY           SKY/WX    TMP DP  RH WIND       PRES   REMARKS
COOPERSTOWN    FAIR      46  37  71 SW13      29.75F
VALLEY CITY    FAIR      50  37  62 SW15G22   29.78S
OAKES            N/A     48  37  66 S17G24    29.80F
GWINNER          N/A     46  37  71 SW17      29.80F
SHEYENNE NWR     N/A     47  37  67 S7        29.95S
BUFFALO          N/A     49  32  52 SW12        N/A
WYNDMERE       NOT AVBL
 ***** THE ABOVE OBSERVATIONS ARE NON NWS ARE NOT QUALITY
       CONTROLLED AND MAY MIS-REPORT RAIN FOR SNOW...
$$

  *****  WEATHER ACROSS NORTHERN MINNESOTA  *****

CITY           SKY/WX    TMP DP  RH WIND       PRES   REMARKS
FLAG ISLAND    FAIR      46  34  61 SW12      29.72S
WARROAD        FAIR      52  37  58 W12G21    29.76R
ROSEAU         FAIR      52  39  62 W6        29.76R
HALLOCK        FAIR      50  28  43 N17G26    29.79R
THF RVR FALLS  FAIR      48  35  60 S15       29.75F
HALSTAD        NOT AVBL
FOSSTON        FAIR      46  32  57 S15       29.79F
BAUDETTE       FAIR      47  33  58 S8        29.75F
WASKISH        FAIR      48  30  49 S8        29.77F
CROOKSTON      FAIR      50  37  62 S16       29.75F
$$
  *****  WEATHER ACROSS CENTRAL AND WEST MINNESOTA  *****

CITY           SKY/WX    TMP DP  RH WIND       PRES   REMARKS
BEMIDJI        FAIR      46  29  51 S10       29.80F
PARK RAPIDS    FAIR      45  31  58 S10       29.83F
WADENA         FAIR      45  32  61 SW8       29.85F
DETROIT LAKES  FAIR      50  32  50 S9        29.82F
MOORHEAD       FAIR      50  36  57 S16G22    29.80F
FERGUS FALLS   FAIR      46  34  61 S12       29.83F
ELBOW LAKE     FAIR      42  36  78 S12       29.87F
MORRIS MN      FAIR      43  37  81 SE7       29.89F
STAPLES        FAIR      41  30  65 S9        29.87F
WHEATON        FAIR      46  34  61 SE13      29.87F
$$
  *****  WEATHER ELSEWHERE ACROSS MINNESOTA  *****

CITY           SKY/WX    TMP DP  RH WIND       PRES   REMARKS
DULUTH         FAIR      45  20  36 SW8       29.88F
INTRNTL FALLS  FAIR      47  28  47 S8        29.78F
ELY            FAIR      46  21  36 SW5       29.85F
CLOQUET        FAIR      45  18  33 SW6       29.89F
BRAINERD       FAIR      46  29  51 S9        29.89F
HIBBING        FAIR      41  23  48 S3        29.86F
ALEXANDRIA     FAIR      47  33  58 S10       29.90F
SAINT CLOUD    FAIR      42  33  70 S5        29.93F
MINNEAPOLIS    CLOUDY    50  33  52 SW5       29.95F
$$

  *****  WEATHER ACROSS SOUTH DAKOTA  *****

CITY           SKY/WX    TMP DP  RH WIND       PRES   REMARKS
SIOUX FALLS    MOCLDY    49  30  48 SW5       29.94F
BROOKINGS      FAIR      46  33  60 S9        29.92F
WATERTOWN      FAIR      41  34  76 S7        29.89F
HURON          FAIR      48  36  63 S10       29.88F
SISSETON         N/A     47  36  65 SE7       29.83F
ABERDEEN       FAIR      47  37  68 S13       29.83F
MITCHELL       FAIR      50  36  58 S10       29.91F
PIERRE         FAIR      51  32  48 S6        29.83F
MOBRIDGE       FAIR      50  34  54 SE5       29.81S
RAPID CITY     FAIR      56  32  40 N18G28    29.95R
$$

  *****  SOME WEATHER IN NEARBY STATES *****

CITY           SKY/WX    TMP DP  RH WIND       PRES   REMARKS
GLASGOW MT     FAIR      46  30  53 NW8       30.10R
GREAT FALLS MT FAIR      38  31  76 S9        30.23S
CHEYENNE WY    FAIR      42  26  53 W10       30.03F
SCOTTSBLUFF NE FAIR      50  31  48 VRB3      29.90F
OMAHA NE       FAIR      49  34  56 CALM      29.99F
DES MOINES IA  FAIR      52  31  44 CALM      29.99F
DAVENPORT IA   FAIR      47  28  47 NE5       29.99F
CHICAGO IL     FAIR      39  29  67 N3        29.99F
EAU CLAIRE WI  FAIR      40  27  59 CALM      29.94F
LA CROSSE WI   FAIR      44  31  60 CALM      29.97F
$$

  *****  SOME NATIONAL WEATHER *****

CITY           SKY/WX    TMP DP  RH WIND       PRES   REMARKS
LA GUARDIA NY  LGT RAIN  55  53  93 CALM      29.62F VSB 3/4
RALEIGH NC     FAIR      51  51 100 CALM      29.81F
ATLANTA GA     FAIR      55  51  86 NW6       29.92S
NEW ORLEANS LA FAIR      69  63  81 SW7       29.92F
OKLAHOMA CITY  FAIR      47  41  80 N8        30.08F
ALBUQUERQUE NM FAIR      59  28  30 SE7       30.10F
SALT LAKE CITY FAIR      57  36  45 CALM      30.10R
LOS ANGELES CA CLOUDY    57  53  86 W12       30.05R
BOISE ID       FAIR      58  35  42 W6        30.09S
SEATTLE WA     FAIR      60  43  53 N8        30.06R
$$

*** WEATHER ACROSS MANITOBA...SASKATCHEWAN AND ONTARIO ***
                ***ONTARIO***

CITY           SKY/WX    TMP DP  RH WIND       PRES   REMARKS
GERALDTON      CLOUDY    37  23  56 SW7       29.79F
THUNDER BAY    MOCLDY    30  27  86 VRB2      29.86F
SIOUX LOOKOUT  MOCLDY    46  30  53 SW7       29.71F
TORONTO        LGT RAIN  39  36  87 NW13      29.79S
BIG TROUT LK   LGT RAIN  34  30  86 N10G20    29.75R
PICKLE LAKE    NOT AVBL
DRYDEN         CLOUDY    46  30  53 S13       29.72F
KENORA         CLOUDY    48  32  53 SW9       29.73R
$$
                *** MANITOBA***

CITY           SKY/WX    TMP DP  RH WIND       PRES   REMARKS
BRANDON        CLEAR     36  28  75 N9        29.94R
DAUPHIN        CLEAR     41  28  60 N12G17    29.98R
ISLAND LAKE    NOT AVBL
PILOT MOUND      N/A     45  25  45 N15         N/A
THE PAS        CLEAR     34  27  75 N5        30.02R
THOMPSON       MOCLDY    28  19  69 NE7       30.03R WCI  21
WINNIPEG       MOCLDY    48  32  53 N14       29.86R
LYNN LAKE      CLEAR     25  21  86 E3        30.01F
CHURCHILL      PTCLDY     9   7  92 N10       30.10S WCI  -6
GILLAM         FLURRIES  16   9  73 NE13      30.05S WCI   2
$$
                ***SASKATCHEWAN***

CITY           SKY/WX    TMP DP  RH WIND       PRES   REMARKS
ESTEVAN        CLEAR     41  28  60 NW9       30.02R
KINDERSLEY     CLEAR     41  28  60 SW8       30.11S
LLOYDMINSTER   CLEAR     39  27  60 W9        30.05S
PRINCE ALBERT  CLEAR     36  27  69 W2        30.05S
REGINA         CLEAR     37  25  60 NW7       30.06R
YORKTON        CLEAR     37  27  65 W9        30.01R



USA.gov is the U.S. government's official web portal to all federal, state and local government web resources and services.